Private Wetterstation Wechselburg
Wetterdaten: Mittwoch, 30.11.2011
Datum Zeit Temp. +2m Bodentemp. Temp.+5cm Temp. Wind Windchill X Diff Temp. Feuchte +2m Feuchte +5cm Sonnenschein Luftdruck Regen Wind Richtung Richtung Sonnenschein UV Taupunkt Windchill Windben
30.11.2011 00:00 6,0 C 9,2 C 5,2 C 5,6 C 4,8 C 0,0 C 75 % 80 % 0 % 1021,3 hPa 0,0 l/m 3,7 km/h (1 Bft) W-SW 247 0 min 0,0 UV-I 1,9 C 4,8 C 2,9 km/h (1 Bft)
30.11.2011 00:14 5,5 C 9,2 C 4,9 C 4,8 C 3,5 C 0,0 C 77 % 81 % 0 % 1021,3 hPa 0,0 l/m 5,6 km/h (1 Bft) W-SW 247 0 min 0,0 UV-I 1,8 C 2,1 C 4,3 km/h (1 Bft)
30.11.2011 00:20 5,4 C 9,2 C 4,8 C 4,7 C 3,4 C 0,0 C 77 % 81 % 0 % 1021,8 hPa 0,0 l/m 5,6 km/h (1 Bft) W-SW 247 0 min 0,0 UV-I 1,7 C 2,0 C 9,5 km/h (2 Bft)
30.11.2011 00:25 5,2 C 9,2 C 4,7 C 4,6 C 3,3 C 0,0 C 77 % 81 % 0 % 1021,8 hPa 0,0 l/m 5,6 km/h (1 Bft) SW 225 0 min 0,0 UV-I 1,5 C 1,9 C 10,8 km/h (2 Bft)
30.11.2011 00:30 5,2 C 9,2 C 4,6 C 4,6 C 3,3 C 0,0 C 78 % 82 % 0 % 1021,8 hPa 0,0 l/m 5,6 km/h (1 Bft) W-SW 247 0 min 0,0 UV-I 1,7 C 1,9 C 5,1 km/h (1 Bft)
30.11.2011 00:35 5,2 C 9,2 C 4,7 C 4,7 C 3,6 C 0,0 C 78 % 82 % 0 % 1021,8 hPa 0,0 l/m 5,0 km/h (1 Bft) SW 225 0 min 0,0 UV-I 1,7 C 2,5 C 7,9 km/h (2 Bft)
30.11.2011 00:40 5,4 C 9,2 C 4,8 C 5,0 C 4,1 C 0,0 C 78 % 82 % 0 % 1022,1 hPa 0,0 l/m 4,2 km/h (1 Bft) W 270 0 min 0,0 UV-I 1,9 C 4,1 C 2,7 km/h (1 Bft)
30.11.2011 00:45 5,5 C 9,2 C 4,9 C 5,2 C 4,7 C 0,0 C 78 % 82 % 0 % 1022,1 hPa 0,0 l/m 3,1 km/h (1 Bft) S 180 0 min 0,0 UV-I 2,0 C 4,7 C 4,8 km/h (1 Bft)
30.11.2011 00:50 5,5 C 9,2 C 5,1 C 5,3 C 5,0 C 0,0 C 78 % 82 % 0 % 1022,1 hPa 0,0 l/m 2,9 km/h (1 Bft) N-NO 22 0 min 0,0 UV-I 2,0 C 5,0 C 1,8 km/h (1 Bft)
30.11.2011 00:55 5,7 C 9,2 C 5,2 C 5,5 C 5,1 C 0,0 C 78 % 82 % 0 % 1022,1 hPa 0,0 l/m 2,4 km/h (1 Bft) S-SO 157 0 min 0,0 UV-I 2,2 C 5,1 C 3,9 km/h (1 Bft)
30.11.2011 01:00 5,7 C 9,2 C 5,2 C 5,5 C 5,1 C 0,0 C 78 % 82 % 0 % 1022,4 hPa 0,0 l/m 2,4 km/h (1 Bft) NO 45 0 min 0,0 UV-I 2,2 C 5,1 C 3,1 km/h (1 Bft)
30.11.2011 01:04 6,0 C 9,2 C 5,6 C 5,8 C 5,4 C 0,0 C 78 % 82 % 0 % 1022,4 hPa 0,0 l/m 3,2 km/h (1 Bft) NW 315 0 min 0,0 UV-I 2,5 C 5,4 C 4,8 km/h (1 Bft)
30.11.2011 01:09 6,2 C 9,2 C 5,9 C 6,0 C 5,6 C 0,0 C 78 % 81 % 0 % 1022,4 hPa 0,0 l/m 3,5 km/h (1 Bft) NO 45 0 min 0,0 UV-I 2,7 C 5,6 C 4,8 km/h (1 Bft)
30.11.2011 01:14 6,5 C 9,3 C 6,0 C 6,1 C 5,4 C 0,0 C 77 % 81 % 0 % 1022,4 hPa 0,0 l/m 4,7 km/h (1 Bft) S 180 0 min 0,0 UV-I 2,8 C 4,7 C 12,9 km/h (3 Bft)
30.11.2011 01:19 6,8 C 9,3 C 6,3 C 6,4 C 5,6 C 0,0 C 77 % 80 % 0 % 1022,4 hPa 0,0 l/m 4,8 km/h (1 Bft) W-SW 247 0 min 0,0 UV-I 3,1 C 4,8 C 2,1 km/h (1 Bft)
30.11.2011 01:25 6,9 C 9,3 C 6,4 C 6,5 C 5,8 C 0,0 C 76 % 80 % 0 % 1022,4 hPa 0,0 l/m 5,1 km/h (1 Bft) SO 135 0 min 0,0 UV-I 3,0 C 5,0 C 13,8 km/h (3 Bft)
30.11.2011 01:30 7,1 C 9,3 C 6,7 C 6,7 C 5,8 C 0,0 C 75 % 79 % 0 % 1022,4 hPa 0,0 l/m 5,6 km/h (1 Bft) SW 225 0 min 0,0 UV-I 3,0 C 4,8 C 9,0 km/h (2 Bft)
30.11.2011 01:35 7,2 C 9,3 C 6,7 C 6,8 C 6,1 C 0,0 C 75 % 79 % 0 % 1022,4 hPa 0,0 l/m 5,5 km/h (1 Bft) SO 135 0 min 0,0 UV-I 3,1 C 5,2 C 4,7 km/h (1 Bft)
30.11.2011 01:40 7,3 C 9,3 C 6,9 C 7,1 C 6,6 C 0,0 C 75 % 79 % 0 % 1022,4 hPa 0,0 l/m 4,0 km/h (1 Bft) W-SW 247 0 min 0,0 UV-I 3,2 C 6,6 C 6,1 km/h (2 Bft)
30.11.2011 01:45 7,5 C 9,3 C 6,9 C 7,2 C 6,7 C 0,0 C 74 % 79 % 0 % 1022,4 hPa 0,0 l/m 4,2 km/h (1 Bft) W-NW 292 0 min 0,0 UV-I 3,2 C 6,7 C 5,8 km/h (2 Bft)
30.11.2011 01:50 7,6 C 9,3 C 7,1 C 7,3 C 6,7 C 0,0 C 74 % 78 % 0 % 1022,4 hPa 0,0 l/m 4,0 km/h (1 Bft) O-SO 112 0 min 0,0 UV-I 3,3 C 6,7 C 4,0 km/h (1 Bft)
30.11.2011 01:55 7,6 C 9,3 C 7,0 C 7,4 C 6,9 C 0,0 C 74 % 78 % 0 % 1022,4 hPa 0,0 l/m 3,4 km/h (1 Bft) W-SW 247 0 min 0,0 UV-I 3,3 C 6,9 C 11,4 km/h (2 Bft)
30.11.2011 02:00 7,6 C 9,3 C 7,1 C 7,4 C 6,9 C 0,0 C 74 % 78 % 0 % 1021,9 hPa 0,0 l/m 3,2 km/h (1 Bft) S-SO 157 0 min 0,0 UV-I 3,3 C 6,9 C 5,1 km/h (1 Bft)
30.11.2011 02:05 7,6 C 9,3 C 7,2 C 7,2 C 6,4 C 0,0 C 75 % 78 % 0 % 1021,9 hPa 0,0 l/m 5,0 km/h (1 Bft) O-NO 67 0 min 0,0 UV-I 3,5 C 5,7 C 17,2 km/h (3 Bft)
30.11.2011 02:10 7,7 C 9,3 C 7,3 C 7,2 C 6,1 C 0,0 C 74 % 78 % 0 % 1021,9 hPa 0,0 l/m 6,6 km/h (2 Bft) S 180 0 min 0,0 UV-I 3,4 C 4,8 C 18,7 km/h (3 Bft)
30.11.2011 02:15 7,7 C 9,3 C 7,2 C 7,2 C 6,2 C 0,0 C 74 % 78 % 0 % 1021,9 hPa 0,0 l/m 6,3 km/h (2 Bft) S-SO 157 0 min 0,0 UV-I 3,4 C 5,0 C 6,9 km/h (2 Bft)
30.11.2011 02:20 7,7 C 9,3 C 7,2 C 7,3 C 6,4 C 0,0 C 74 % 78 % 0 % 1021,5 hPa 0,0 l/m 5,6 km/h (1 Bft) O-SO 112 0 min 0,0 UV-I 3,4 C 5,5 C 5,5 km/h (1 Bft)
30.11.2011 02:25 7,7 C 9,3 C 7,2 C 7,3 C 6,6 C 0,0 C 74 % 78 % 0 % 1021,5 hPa 0,0 l/m 5,1 km/h (1 Bft) O-SO 112 0 min 0,0 UV-I 3,4 C 5,9 C 4,0 km/h (1 Bft)
30.11.2011 02:30 7,6 C 9,3 C 7,2 C 7,2 C 6,5 C 0,0 C 74 % 78 % 0 % 1021,5 hPa 0,0 l/m 5,3 km/h (1 Bft) NW 315 0 min 0,0 UV-I 3,3 C 5,7 C 4,3 km/h (1 Bft)
30.11.2011 02:35 7,7 C 9,4 C 7,3 C 7,1 C 6,0 C 0,0 C 75 % 79 % 0 % 1021,5 hPa 0,0 l/m 6,4 km/h (2 Bft) W 270 0 min 0,0 UV-I 3,6 C 4,7 C 9,3 km/h (2 Bft)
30.11.2011 02:40 7,6 C 9,4 C 7,2 C 7,1 C 6,0 C 0,0 C 75 % 79 % 0 % 1021,6 hPa 0,0 l/m 6,4 km/h (2 Bft) SW 225 0 min 0,0 UV-I 3,5 C 4,7 C 4,8 km/h (1 Bft)
30.11.2011 02:45 7,6 C 9,4 C 7,2 C 7,1 C 6,1 C 0,0 C 75 % 79 % 0 % 1021,6 hPa 0,0 l/m 6,1 km/h (2 Bft) O 90 0 min 0,0 UV-I 3,5 C 5,0 C 8,4 km/h (2 Bft)
30.11.2011 02:50 7,6 C 9,4 C 7,2 C 7,1 C 6,2 C 0,0 C 75 % 79 % 0 % 1021,6 hPa 0,0 l/m 6,1 km/h (2 Bft) S 180 0 min 0,0 UV-I 3,5 C 5,1 C 6,3 km/h (2 Bft)
30.11.2011 02:55 7,7 C 9,4 C 7,2 C 7,2 C 6,2 C 0,0 C 75 % 79 % 0 % 1021,6 hPa 0,0 l/m 6,3 km/h (2 Bft) W 270 0 min 0,0 UV-I 3,6 C 5,0 C 21,6 km/h (4 Bft)
30.11.2011 03:00 7,6 C 9,4 C 7,2 C 7,1 C 6,1 C 0,0 C 75 % 79 % 0 % 1021,6 hPa 0,0 l/m 6,3 km/h (2 Bft) N 360 0 min 0,0 UV-I 3,5 C 4,9 C 10,3 km/h (2 Bft)
30.11.2011 03:12 7,4 C 9,4 C 7,0 C 6,8 C 5,7 C 0,0 C 76 % 79 % 0 % 1021,6 hPa 0,0 l/m 6,6 km/h (2 Bft) N 0 0 min 0,0 UV-I 3,5 C 4,3 C 7,9 km/h (2 Bft)
30.11.2011 03:20 7,5 C 9,4 C 7,1 C 7,0 C 6,0 C 0,0 C 76 % 79 % 0 % 1021,9 hPa 0,0 l/m 5,6 km/h (1 Bft) SO 135 0 min 0,0 UV-I 3,5 C 5,0 C 10,5 km/h (2 Bft)
30.11.2011 03:25 7,3 C 9,4 C 6,9 C 6,9 C 6,0 C 0,0 C 76 % 79 % 0 % 1021,9 hPa 0,0 l/m 5,3 km/h (1 Bft) W-SW 247 0 min 0,0 UV-I 3,4 C 5,1 C 11,9 km/h (2 Bft)
30.11.2011 03:30 7,2 C 9,4 C 6,8 C 6,8 C 6,1 C 0,0 C 76 % 80 % 0 % 1021,9 hPa 0,0 l/m 5,0 km/h (1 Bft) N-NO 22 0 min 0,0 UV-I 3,3 C 5,3 C 3,2 km/h (1 Bft)
30.11.2011 03:35 7,2 C 9,4 C 6,8 C 6,9 C 6,2 C 0,0 C 76 % 80 % 0 % 1021,9 hPa 0,0 l/m 4,5 km/h (1 Bft) S-SO 157 0 min 0,0 UV-I 3,3 C 6,2 C 4,3 km/h (1 Bft)
30.11.2011 03:40 7,1 C 9,4 C 6,7 C 6,8 C 6,2 C 0,0 C 77 % 80 % 0 % 1022,1 hPa 0,0 l/m 4,3 km/h (1 Bft) W-SW 247 0 min 0,0 UV-I 3,3 C 6,2 C 4,0 km/h (1 Bft)
30.11.2011 03:45 7,2 C 9,5 C 6,8 C 6,8 C 5,9 C 0,0 C 77 % 80 % 0 % 1022,1 hPa 0,0 l/m 4,8 km/h (1 Bft) W-SW 247 0 min 0,0 UV-I 3,4 C 5,2 C 3,9 km/h (1 Bft)
30.11.2011 03:50 7,2 C 9,5 C 6,8 C 6,8 C 5,9 C 0,0 C 77 % 80 % 0 % 1022,1 hPa 0,0 l/m 5,0 km/h (1 Bft) W-NW 292 0 min 0,0 UV-I 3,4 C 5,1 C 2,9 km/h (1 Bft)
30.11.2011 03:55 7,1 C 9,5 C 6,7 C 6,7 C 5,8 C 0,0 C 77 % 81 % 0 % 1022,1 hPa 0,0 l/m 5,1 km/h (1 Bft) NW 315 0 min 0,0 UV-I 3,3 C 5,0 C 6,8 km/h (2 Bft)
30.11.2011 04:00 7,1 C 9,5 C 6,7 C 6,6 C 5,7 C 0,0 C 77 % 81 % 0 % 1022,4 hPa 0,0 l/m 5,5 km/h (1 Bft) W 270 0 min 0,0 UV-I 3,3 C 4,7 C 7,7 km/h (2 Bft)
30.11.2011 04:04 7,1 C 9,5 C 6,7 C 6,7 C 5,9 C 0,0 C 77 % 81 % 0 % 1022,4 hPa 0,0 l/m 5,3 km/h (1 Bft) S 180 0 min 0,0 UV-I 3,3 C 5,0 C 6,4 km/h (2 Bft)
30.11.2011 04:09 7,0 C 9,5 C 6,7 C 6,8 C 6,3 C 0,0 C 78 % 81 % 0 % 1022,4 hPa 0,0 l/m 4,3 km/h (1 Bft) SW 225 0 min 0,0 UV-I 3,4 C 6,3 C 4,3 km/h (1 Bft)
30.11.2011 04:14 7,0 C 9,5 C 6,6 C 6,7 C 6,2 C 0,0 C 78 % 81 % 0 % 1022,4 hPa 0,0 l/m 4,8 km/h (1 Bft) SW 225 0 min 0,0 UV-I 3,4 C 5,5 C 7,1 km/h (2 Bft)
30.11.2011 04:18 7,0 C 9,5 C 6,6 C 6,7 C 6,2 C 0,0 C 78 % 81 % 0 % 1022,4 hPa 0,0 l/m 4,8 km/h (1 Bft) SW 225 0 min 0,0 UV-I 3,4 C 5,5 C 7,1 km/h (2 Bft)
30.11.2011 04:25 7,1 C 9,5 C 6,7 C 6,8 C 6,1 C 0,0 C 78 % 82 % 0 % 1022,8 hPa 0,0 l/m 6,8 km/h (2 Bft) W-SW 247 0 min 0,0 UV-I 3,5 C 4,7 C 10,9 km/h (2 Bft)
30.11.2011 04:30 7,3 C 9,5 C 6,8 C 7,0 C 6,3 C 0,0 C 78 % 82 % 0 % 1022,8 hPa 0,0 l/m 6,6 km/h (2 Bft) W-SW 247 0 min 0,0 UV-I 3,7 C 5,0 C 11,1 km/h (2 Bft)
30.11.2011 04:35 7,3 C 9,5 C 6,9 C 7,0 C 6,3 C 0,0 C 78 % 82 % 0 % 1022,8 hPa 0,0 l/m 7,1 km/h (2 Bft) W-SW 247 0 min 0,0 UV-I 3,7 C 4,9 C 9,8 km/h (2 Bft)
30.11.2011 04:40 7,3 C 9,5 C 6,9 C 7,0 C 6,5 C 0,0 C 78 % 82 % 0 % 1022,5 hPa 0,0 l/m 6,8 km/h (2 Bft) W-SW 247 0 min 0,0 UV-I 3,7 C 5,2 C 2,3 km/h (1 Bft)
30.11.2011 04:45 7,4 C 9,6 C 7,1 C 7,2 C 6,9 C 0,0 C 78 % 82 % 0 % 1022,5 hPa 0,0 l/m 5,6 km/h (1 Bft) W-SW 247 0 min 0,0 UV-I 3,8 C 6,0 C 7,2 km/h (2 Bft)
30.11.2011 04:50 7,4 C 9,6 C 7,0 C 7,2 C 6,9 C 0,0 C 78 % 82 % 0 % 1022,5 hPa 0,0 l/m 5,6 km/h (1 Bft) W-SW 247 0 min 0,0 UV-I 3,8 C 6,0 C 13,4 km/h (3 Bft)
30.11.2011 04:55 7,4 C 9,6 C 7,1 C 7,1 C 6,6 C 0,0 C 78 % 81 % 0 % 1022,5 hPa 0,0 l/m 6,3 km/h (2 Bft) NW 315 0 min 0,0 UV-I 3,8 C 5,5 C 4,8 km/h (1 Bft)
30.11.2011 05:00 7,4 C 9,6 C 7,1 C 7,1 C 6,6 C 0,0 C 78 % 81 % 0 % 1022,5 hPa 0,0 l/m 6,0 km/h (2 Bft) W-SW 247 0 min 0,0 UV-I 3,8 C 5,6 C 9,0 km/h (2 Bft)
30.11.2011 05:10 7,5 C 9,6 C 7,1 C 7,1 C 6,4 C 0,0 C 78 % 81 % 0 % 1022,5 hPa 0,0 l/m 5,6 km/h (1 Bft) N 0 0 min 0,0 UV-I 3,9 C 5,5 C 6,3 km/h (2 Bft)
30.11.2011 05:20 7,5 C 9,6 C 7,1 C 7,2 C 6,6 C 0,0 C 78 % 82 % 0 % 1022,5 hPa 0,0 l/m 5,3 km/h (1 Bft) NW 315 0 min 0,0 UV-I 3,9 C 5,8 C 7,1 km/h (2 Bft)
30.11.2011 05:25 7,5 C 9,6 C 7,1 C 7,3 C 6,9 C 0,0 C 78 % 82 % 0 % 1022,5 hPa 0,0 l/m 4,7 km/h (1 Bft) S-SO 157 0 min 0,0 UV-I 3,9 C 6,3 C 7,7 km/h (2 Bft)
30.11.2011 05:30 7,6 C 9,6 C 7,2 C 7,5 C 7,2 C 0,0 C 78 % 82 % 0 % 1022,5 hPa 0,0 l/m 4,0 km/h (1 Bft) S-SW 202 0 min 0,0 UV-I 4,0 C 7,2 C 4,3 km/h (1 Bft)
30.11.2011 05:35 7,6 C 9,6 C 7,2 C 7,5 C 7,3 C 0,0 C 78 % 82 % 0 % 1022,5 hPa 0,0 l/m 3,9 km/h (1 Bft) S-SO 157 0 min 0,0 UV-I 4,0 C 7,3 C 4,5 km/h (1 Bft)
30.11.2011 05:40 7,6 C 9,6 C 7,2 C 7,5 C 7,3 C 0,0 C 79 % 82 % 0 % 1023,1 hPa 0,0 l/m 4,2 km/h (1 Bft) W-SW 247 0 min 0,0 UV-I 4,2 C 7,3 C 8,4 km/h (2 Bft)
30.11.2011 05:45 7,6 C 9,7 C 7,2 C 7,6 C 7,5 C 0,0 C 79 % 82 % 0 % 1023,1 hPa 0,0 l/m 3,9 km/h (1 Bft) N-NO 22 0 min 0,0 UV-I 4,2 C 7,5 C 1,9 km/h (1 Bft)
30.11.2011 05:50 7,6 C 9,7 C 7,2 C 7,6 C 7,6 C 0,0 C 79 % 82 % 0 % 1023,1 hPa 0,0 l/m 3,4 km/h (1 Bft) S 180 0 min 0,0 UV-I 4,2 C 7,6 C 6,4 km/h (2 Bft)
30.11.2011 05:55 7,6 C 9,7 C 7,4 C 7,6 C 7,5 C 0,0 C 79 % 82 % 0 % 1023,1 hPa 0,0 l/m 4,0 km/h (1 Bft) S-SO 157 0 min 0,0 UV-I 4,2 C 7,5 C 5,1 km/h (1 Bft)
30.11.2011 06:00 7,7 C 9,7 C 7,3 C 7,6 C 7,5 C 0,0 C 79 % 82 % 0 % 1023,1 hPa 0,0 l/m 4,0 km/h (1 Bft) NW 315 0 min 0,0 UV-I 4,3 C 7,5 C 3,5 km/h (1 Bft)
30.11.2011 06:04 7,7 C 9,7 C 7,3 C 7,7 C 7,6 C 0,0 C 79 % 82 % 0 % 1023,1 hPa 0,0 l/m 3,1 km/h (1 Bft) S-SO 157 0 min 0,0 UV-I 4,3 C 7,6 C 4,7 km/h (1 Bft)
30.11.2011 06:09 7,6 C 9,7 C 7,2 C 7,6 C 7,5 C 0,0 C 79 % 82 % 0 % 1023,1 hPa 0,0 l/m 3,1 km/h (1 Bft) S-SW 202 0 min 0,0 UV-I 4,2 C 7,5 C 2,7 km/h (1 Bft)
30.11.2011 06:14 7,7 C 9,7 C 7,2 C 7,6 C 7,5 C 0,0 C 79 % 82 % 0 % 1023,1 hPa 0,0 l/m 3,4 km/h (1 Bft) W-SW 247 0 min 0,0 UV-I 4,3 C 7,5 C 6,4 km/h (2 Bft)
30.11.2011 06:18 7,7 C 9,7 C 7,2 C 7,6 C 7,5 C 0,0 C 79 % 82 % 0 % 1023,1 hPa 0,0 l/m 3,4 km/h (1 Bft) W-SW 247 0 min 0,0 UV-I 4,3 C 7,5 C 6,4 km/h (2 Bft)
30.11.2011 06:25 7,6 C 9,7 C 7,3 C 7,3 C 6,7 C 0,0 C 80 % 83 % 0 % 1023,1 hPa 0,0 l/m 6,1 km/h (2 Bft) S 180 0 min 0,0 UV-I 4,4 C 5,6 C 6,4 km/h (2 Bft)
30.11.2011 06:30 7,6 C 9,7 C 7,2 C 7,3 C 6,8 C 0,0 C 80 % 83 % 0 % 1023,1 hPa 0,0 l/m 5,8 km/h (2 Bft) W-SW 247 0 min 0,0 UV-I 4,4 C 5,9 C 9,5 km/h (2 Bft)
30.11.2011 06:35 7,6 C 9,7 C 7,2 C 7,4 C 7,1 C 0,0 C 80 % 83 % 0 % 1023,1 hPa 0,0 l/m 5,3 km/h (1 Bft) W-SW 247 0 min 0,0 UV-I 4,4 C 6,4 C 9,2 km/h (2 Bft)
30.11.2011 06:40 7,6 C 9,8 C 7,2 C 7,5 C 7,2 C 0,0 C 80 % 83 % 0 % 1023,8 hPa 0,0 l/m 5,0 km/h (1 Bft) N-NW 337 0 min 0,0 UV-I 4,4 C 6,6 C 7,6 km/h (2 Bft)
30.11.2011 06:45 7,7 C 9,8 C 7,2 C 7,6 C 7,3 C 0,0 C 80 % 83 % 0 % 1023,8 hPa 0,0 l/m 4,7 km/h (1 Bft) W 270 0 min 0,0 UV-I 4,5 C 6,8 C 6,9 km/h (2 Bft)
30.11.2011 06:50 7,7 C 9,8 C 7,2 C 7,6 C 7,4 C 0,0 C 80 % 83 % 0 % 1023,8 hPa 0,0 l/m 4,3 km/h (1 Bft) W-SW 247 0 min 0,0 UV-I 4,5 C 7,4 C 5,6 km/h (1 Bft)
30.11.2011 06:55 7,6 C 9,8 C 7,2 C 7,5 C 7,2 C 0,0 C 80 % 83 % 0 % 1023,8 hPa 0,0 l/m 4,8 km/h (1 Bft) W-NW 292 0 min 0,0 UV-I 4,4 C 6,7 C 3,4 km/h (1 Bft)
30.11.2011 07:00 7,6 C 9,8 C 7,2 C 7,4 C 6,9 C 0,0 C 80 % 83 % 0 % 1024,0 hPa 0,0 l/m 5,8 km/h (2 Bft) W-SW 247 0 min 0,0 UV-I 4,4 C 6,0 C 10,3 km/h (2 Bft)
30.11.2011 07:15 7,6 C 9,8 C 7,2 C 7,3 C 6,8 C 0,0 C 80 % 83 % 0 % 1024,0 hPa 0,0 l/m 6,8 km/h (2 Bft) S-SW 202 0 min 0,0 UV-I 4,4 C 5,6 C 11,6 km/h (2 Bft)
30.11.2011 07:18 7,6 C 9,8 C 7,2 C 7,3 C 6,8 C 0,0 C 80 % 83 % 0 % 1024,0 hPa 0,0 l/m 6,8 km/h (2 Bft) S-SW 202 0 min 0,0 UV-I 4,4 C 5,6 C 11,6 km/h (2 Bft)
30.11.2011 07:20 7,7 C 9,8 C 7,2 C 7,4 C 6,8 C 0,0 C 80 % 83 % 0 % 1024,1 hPa 0,0 l/m 6,8 km/h (2 Bft) SW 225 0 min 0,0 UV-I 4,5 C 5,6 C 10,1 km/h (2 Bft)
30.11.2011 07:25 7,6 C 9,8 C 7,3 C 7,4 C 6,9 C 0,0 C 80 % 84 % 0 % 1024,1 hPa 0,0 l/m 6,4 km/h (2 Bft) S-SO 157 0 min 0,0 UV-I 4,4 C 5,8 C 7,4 km/h (2 Bft)
30.11.2011 07:30 7,6 C 9,8 C 7,2 C 7,4 C 7,1 C 0,0 C 81 % 84 % 0 % 1024,1 hPa 0,0 l/m 5,8 km/h (2 Bft) SW 225 0 min 0,0 UV-I 4,6 C 6,2 C 6,4 km/h (2 Bft)
30.11.2011 07:35 7,6 C 9,9 C 7,2 C 7,6 C 7,6 C 0,0 C 81 % 84 % 0 % 1024,1 hPa 0,0 l/m 4,3 km/h (1 Bft) S-SW 202 0 min 0,0 UV-I 4,6 C 7,6 C 4,0 km/h (1 Bft)
30.11.2011 07:40 7,6 C 9,9 C 7,2 C 7,9 C 7,9 C 0,3 C 81 % 84 % 0 % 1025,1 hPa 0,0 l/m 3,5 km/h (1 Bft) SW 225 0 min 0,0 UV-I 4,6 C 7,9 C 4,2 km/h (1 Bft)
30.11.2011 07:45 7,7 C 9,9 C 7,2 C 7,8 C 7,8 C 0,1 C 81 % 84 % 0 % 1025,1 hPa 0,0 l/m 2,6 km/h (1 Bft) W-SW 247 0 min 0,0 UV-I 4,7 C 7,8 C 3,7 km/h (1 Bft)
30.11.2011 07:50 7,6 C 9,9 C 7,3 C 7,8 C 7,8 C 0,2 C 81 % 84 % 0 % 1025,1 hPa 0,0 l/m 2,7 km/h (1 Bft) W 270 0 min 0,0 UV-I 4,6 C 7,8 C 3,2 km/h (1 Bft)
30.11.2011 07:55 7,6 C 9,9 C 7,2 C 7,8 C 7,8 C 0,2 C 81 % 84 % 0 % 1025,1 hPa 0,0 l/m 2,9 km/h (1 Bft) S-SO 157 0 min 0,0 UV-I 4,6 C 7,8 C 1,9 km/h (1 Bft)
30.11.2011 08:00 7,7 C 9,9 C 7,3 C 7,8 C 7,8 C 0,1 C 81 % 84 % 0 % 1025,1 hPa 0,0 l/m 2,4 km/h (1 Bft) O-NO 67 0 min 0,0 UV-I 4,7 C 7,8 C 2,6 km/h (1 Bft)
30.11.2011 08:04 7,6 C 9,9 C 7,2 C 7,8 C 7,8 C 0,2 C 81 % 84 % 5 % 1025,1 hPa 0,0 l/m 1,4 km/h (1 Bft) W-SW 247 0 min 0,0 UV-I 4,6 C 7,8 C 4,5 km/h (1 Bft)
30.11.2011 08:09 7,7 C 9,9 C 7,2 C 7,8 C 7,8 C 0,1 C 82 % 84 % 3 % 1025,1 hPa 0,0 l/m 1,4 km/h (1 Bft) S 180 0 min 0,0 UV-I 4,8 C 7,8 C 4,8 km/h (1 Bft)
30.11.2011 08:14 7,7 C 9,9 C 7,2 C 7,8 C 7,8 C 0,1 C 82 % 85 % 3 % 1025,1 hPa 0,0 l/m 1,8 km/h (1 Bft) SW 225 0 min 0,0 UV-I 4,8 C 7,8 C 2,6 km/h (1 Bft)
30.11.2011 08:18 7,7 C 9,9 C 7,2 C 7,8 C 7,8 C 0,1 C 82 % 85 % 3 % 1025,1 hPa 0,0 l/m 1,8 km/h (1 Bft) SW 225 0 min 0,0 UV-I 4,8 C 7,8 C 2,6 km/h (1 Bft)
30.11.2011 08:25 7,6 C 10,0 C 7,3 C 7,9 C 7,9 C 0,3 C 82 % 85 % 8 % 1025,1 hPa 0,0 l/m 2,3 km/h (1 Bft) S 180 0 min 0,0 UV-I 4,7 C 7,9 C 4,7 km/h (1 Bft)
30.11.2011 08:30 7,7 C 10,0 C 7,5 C 7,9 C 7,9 C 0,2 C 83 % 85 % 5 % 1025,1 hPa 0,0 l/m 3,2 km/h (1 Bft) W-SW 247 0 min 0,0 UV-I 5,0 C 7,9 C 4,8 km/h (1 Bft)
30.11.2011 08:35 7,7 C 10,0 C 7,3 C 7,9 C 7,9 C 0,2 C 82 % 85 % 5 % 1025,1 hPa 0,0 l/m 3,4 km/h (1 Bft) W 270 0 min 0,0 UV-I 4,8 C 7,9 C 6,4 km/h (2 Bft)
30.11.2011 08:40 7,7 C 10,0 C 7,5 C 7,9 C 7,9 C 0,2 C 83 % 85 % 5 % 1025,6 hPa 0,0 l/m 3,5 km/h (1 Bft) W-SW 247 0 min 0,0 UV-I 5,0 C 7,9 C 5,1 km/h (1 Bft)
30.11.2011 08:45 7,8 C 10,0 C 7,4 C 7,8 C 7,7 C 0,0 C 83 % 85 % 0 % 1025,6 hPa 0,0 l/m 4,0 km/h (1 Bft) W-SW 247 0 min 0,0 UV-I 5,1 C 7,7 C 5,8 km/h (2 Bft)
30.11.2011 08:50 7,9 C 10,1 C 7,5 C 7,8 C 7,5 C 0,0 C 83 % 86 % 0 % 1025,6 hPa 0,0 l/m 4,5 km/h (1 Bft) W-SW 247 0 min 0,0 UV-I 5,2 C 7,5 C 6,6 km/h (2 Bft)
30.11.2011 08:55 7,8 C 10,2 C 7,5 C 7,8 C 7,8 C 0,0 C 83 % 86 % 0 % 1025,6 hPa 0,0 l/m 2,9 km/h (1 Bft) W-SW 247 0 min 0,0 UV-I 5,1 C 7,8 C 2,9 km/h (1 Bft)
30.11.2011 09:00 7,9 C 10,2 C 7,4 C 7,8 C 7,7 C 0,0 C 83 % 86 % 0 % 1025,6 hPa 0,0 l/m 1,9 km/h (1 Bft) SO 135 0 min 0,0 UV-I 5,2 C 7,7 C 3,9 km/h (1 Bft)
30.11.2011 09:10 7,7 C 10,2 C 7,3 C 7,7 C 7,6 C 0,0 C 83 % 86 % 0 % 1025,6 hPa 0,0 l/m 1,6 km/h (1 Bft) N 0 0 min 0,0 UV-I 5,0 C 7,6 C 2,4 km/h (1 Bft)
30.11.2011 09:20 7,8 C 10,3 C 7,3 C 7,7 C 7,5 C 0,0 C 84 % 87 % 0 % 1026,4 hPa 0,0 l/m 1,9 km/h (1 Bft) W 270 0 min 0,0 UV-I 5,3 C 7,5 C 4,3 km/h (1 Bft)
30.11.2011 09:25 7,7 C 10,3 C 7,3 C 7,6 C 7,5 C 0,0 C 85 % 87 % 0 % 1026,4 hPa 0,0 l/m 2,7 km/h (1 Bft) W 270 0 min 0,0 UV-I 5,3 C 7,5 C 5,8 km/h (2 Bft)
30.11.2011 09:30 7,9 C 10,3 C 7,3 C 7,8 C 7,6 C 0,0 C 85 % 87 % 0 % 1026,4 hPa 0,0 l/m 3,9 km/h (1 Bft) SW 225 0 min 0,0 UV-I 5,5 C 7,6 C 4,8 km/h (1 Bft)
30.11.2011 09:35 7,8 C 10,2 C 7,4 C 7,6 C 7,2 C 0,0 C 85 % 87 % 0 % 1026,4 hPa 0,0 l/m 5,5 km/h (1 Bft) S-SW 202 0 min 0,0 UV-I 5,4 C 6,4 C 5,3 km/h (1 Bft)
30.11.2011 09:40 7,9 C 10,2 C 7,6 C 7,8 C 7,5 C 0,0 C 85 % 87 % 0 % 1026,8 hPa 0,0 l/m 5,6 km/h (1 Bft) W-SW 247 0 min 0,0 UV-I 5,5 C 6,7 C 9,3 km/h (2 Bft)
30.11.2011 09:45 8,0 C 10,2 C 7,6 C 8,0 C 8,0 C 0,0 C 85 % 87 % 0 % 1026,8 hPa 0,0 l/m 5,5 km/h (1 Bft) W-SW 247 0 min 0,0 UV-I 5,6 C 7,3 C 2,7 km/h (1 Bft)
30.11.2011 09:50 8,1 C 10,2 C 7,7 C 8,4 C 8,4 C 0,3 C 85 % 88 % 8 % 1026,8 hPa 0,0 l/m 5,0 km/h (1 Bft) W-SW 247 0 min 0,0 UV-I 5,7 C 7,9 C 4,7 km/h (1 Bft)
30.11.2011 09:55 8,3 C 10,2 C 7,9 C 8,3 C 8,3 C 0,0 C 85 % 87 % 0 % 1026,8 hPa 0,0 l/m 5,5 km/h (1 Bft) SW 225 0 min 0,0 UV-I 5,9 C 7,7 C 8,2 km/h (2 Bft)
30.11.2011 10:00 8,3 C 10,2 C 7,9 C 8,2 C 8,1 C 0,0 C 85 % 87 % 0 % 1026,8 hPa 0,0 l/m 6,4 km/h (2 Bft) SW 225 0 min 0,0 UV-I 5,9 C 7,2 C 11,9 km/h (2 Bft)
30.11.2011 10:10 8,3 C 10,3 C 7,9 C 8,2 C 7,6 C 0,0 C 85 % 87 % 0 % 1026,8 hPa 0,0 l/m 7,7 km/h (2 Bft) N 0 0 min 0,0 UV-I 5,9 C 6,3 C 8,9 km/h (2 Bft)
30.11.2011 10:20 8,1 C 10,3 C 7,8 C 7,9 C 7,4 C 0,0 C 85 % 87 % 0 % 1026,8 hPa 0,0 l/m 7,1 km/h (2 Bft) SW 225 0 min 0,0 UV-I 5,7 C 6,2 C 7,7 km/h (2 Bft)
30.11.2011 10:25 8,1 C 10,3 C 7,8 C 8,0 C 7,9 C 0,0 C 85 % 87 % 0 % 1026,8 hPa 0,0 l/m 5,5 km/h (1 Bft) W-SW 247 0 min 0,0 UV-I 5,7 C 7,2 C 5,3 km/h (1 Bft)
30.11.2011 10:30 8,2 C 10,3 C 7,8 C 8,1 C 8,0 C 0,0 C 85 % 87 % 0 % 1026,8 hPa 0,0 l/m 5,1 km/h (1 Bft) W-SW 247 0 min 0,0 UV-I 5,8 C 7,5 C 6,8 km/h (2 Bft)
30.11.2011 10:35 8,2 C 10,3 C 7,9 C 8,1 C 8,0 C 0,0 C 85 % 87 % 0 % 1026,8 hPa 0,0 l/m 5,5 km/h (1 Bft) W-SW 247 0 min 0,0 UV-I 5,8 C 7,3 C 7,6 km/h (2 Bft)
30.11.2011 10:40 8,3 C 10,3 C 8,0 C 8,3 C 8,2 C 0,0 C 85 % 87 % 0 % 1026,8 hPa 0,0 l/m 5,5 km/h (1 Bft) W-SW 247 0 min 0,0 UV-I 5,9 C 7,6 C 5,8 km/h (2 Bft)
30.11.2011 10:45 8,3 C 10,3 C 7,9 C 8,5 C 8,5 C 0,2 C 85 % 87 % 5 % 1026,8 hPa 0,0 l/m 4,5 km/h (1 Bft) SW 225 0 min 0,0 UV-I 5,9 C 8,5 C 8,0 km/h (2 Bft)
30.11.2011 10:50 8,3 C 10,3 C 8,0 C 8,8 C 8,8 C 0,5 C 85 % 87 % 13 % 1026,8 hPa 0,0 l/m 3,7 km/h (1 Bft) N 360 0 min 0,0 UV-I 5,9 C 8,8 C 1,9 km/h (1 Bft)
30.11.2011 10:55 8,3 C 10,3 C 8,0 C 8,9 C 8,9 C 0,6 C 85 % 87 % 16 % 1026,8 hPa 0,0 l/m 3,7 km/h (1 Bft) W-SW 247 0 min 0,0 UV-I 5,9 C 8,9 C 4,8 km/h (1 Bft)
30.11.2011 11:00 8,3 C 10,3 C 8,0 C 9,0 C 9,0 C 0,7 C 85 % 87 % 18 % 1027,9 hPa 0,0 l/m 3,1 km/h (1 Bft) W-SW 247 0 min 0,0 UV-I 5,9 C 9,0 C 1,6 km/h (1 Bft)
30.11.2011 11:10 8,4 C 10,3 C 8,3 C 9,3 C 9,3 C 0,9 C 85 % 87 % 24 % 1027,9 hPa 0,0 l/m 2,3 km/h (1 Bft) N 0 0 min 0,0 UV-I 6,0 C 9,3 C 3,1 km/h (1 Bft)
30.11.2011 11:20 8,5 C 10,3 C 8,3 C 9,3 C 9,3 C 0,8 C 85 % 87 % 21 % 1027,4 hPa 0,0 l/m 1,8 km/h (1 Bft) NW 315 0 min 0,0 UV-I 6,1 C 9,3 C 4,7 km/h (1 Bft)
30.11.2011 11:25 8,6 C 10,3 C 8,3 C 9,3 C 9,3 C 0,7 C 84 % 87 % 18 % 1027,4 hPa 0,0 l/m 1,9 km/h (1 Bft) SO 135 0 min 0,0 UV-I 6,1 C 9,3 C 0,0 km/h (0 Bft)
30.11.2011 11:30 8,7 C 10,3 C 8,3 C 9,4 C 9,4 C 0,7 C 84 % 87 % 18 % 1027,4 hPa 0,0 l/m 2,4 km/h (1 Bft) SW 225 0 min 0,0 UV-I 6,2 C 9,4 C 3,5 km/h (1 Bft)
30.11.2011 11:35 8,6 C 10,3 C 8,3 C 9,3 C 9,3 C 0,7 C 84 % 87 % 18 % 1027,4 hPa 0,0 l/m 4,3 km/h (1 Bft) SW 225 0 min 0,0 UV-I 6,1 C 9,3 C 5,5 km/h (1 Bft)
30.11.2011 11:40 8,7 C 10,3 C 8,4 C 9,1 C 9,1 C 0,4 C 84 % 87 % 11 % 1028,2 hPa 0,0 l/m 5,1 km/h (1 Bft) W-SW 247 0 min 0,0 UV-I 6,2 C 8,7 C 4,0 km/h (1 Bft)
30.11.2011 11:45 8,7 C 10,3 C 8,4 C 9,2 C 9,2 C 0,5 C 84 % 86 % 13 % 1028,2 hPa 0,0 l/m 5,0 km/h (1 Bft) W 270 0 min 0,0 UV-I 6,2 C 8,8 C 5,1 km/h (1 Bft)
30.11.2011 11:50 8,7 C 10,3 C 8,5 C 9,2 C 9,2 C 0,5 C 83 % 86 % 13 % 1028,2 hPa 0,0 l/m 4,7 km/h (1 Bft) W-SW 247 0 min 0,0 UV-I 6,0 C 8,9 C 5,8 km/h (2 Bft)
30.11.2011 11:55 8,8 C 10,3 C 8,5 C 9,4 C 9,4 C 0,6 C 83 % 86 % 16 % 1028,2 hPa 0,0 l/m 4,2 km/h (1 Bft) W-SW 247 0 min 0,0 UV-I 6,1 C 9,4 C 4,7 km/h (1 Bft)
30.11.2011 12:00 8,8 C 10,3 C 8,5 C 9,6 C 9,6 C 0,8 C 83 % 86 % 21 % 1028,1 hPa 0,0 l/m 3,4 km/h (1 Bft) W-NW 292 0 min 0,0 UV-I 6,1 C 9,6 C 3,9 km/h (1 Bft)
30.11.2011 12:05 8,8 C 10,3 C 8,6 C 9,7 C 9,7 C 0,9 C 83 % 86 % 24 % 1028,1 hPa 0,0 l/m 3,5 km/h (1 Bft) W-SW 247 0 min 0,0 UV-I 6,1 C 9,7 C 6,4 km/h (2 Bft)
30.11.2011 12:10 8,9 C 10,3 C 8,7 C 9,8 C 9,8 C 0,9 C 83 % 86 % 24 % 1028,1 hPa 0,0 l/m 3,7 km/h (1 Bft) S 180 0 min 0,0 UV-I 6,2 C 9,8 C 5,3 km/h (1 Bft)
30.11.2011 12:15 9,0 C 10,3 C 8,9 C 10,2 C 10,2 C 1,2 C 83 % 86 % 32 % 1028,1 hPa 0,0 l/m 4,0 km/h (1 Bft) W-SW 247 0 min 0,0 UV-I 6,3 C 10,2 C 4,3 km/h (1 Bft)
30.11.2011 12:20 9,1 C 10,3 C 9,1 C 10,6 C 10,6 C 1,5 C 83 % 85 % 39 % 1027,9 hPa 0,0 l/m 4,2 km/h (1 Bft) W-SW 247 0 min 0,0 UV-I 6,4 C 10,6 C 7,6 km/h (2 Bft)
30.11.2011 12:25 9,2 C 10,3 C 9,3 C 10,7 C 10,7 C 1,5 C 82 % 85 % 39 % 1027,9 hPa 0,0 l/m 5,5 km/h (1 Bft) W-SW 247 0 min 0,0 UV-I 6,3 C 10,7 C 8,0 km/h (2 Bft)
30.11.2011 12:30 9,2 C 10,3 C 9,2 C 10,2 C 10,2 C 1,0 C 81 % 84 % 26 % 1027,9 hPa 0,0 l/m 6,4 km/h (2 Bft) SW 225 0 min 0,0 UV-I 6,1 C 10,2 C 10,6 km/h (2 Bft)
30.11.2011 12:35 9,2 C 10,3 C 9,0 C 9,4 C 9,4 C 0,2 C 81 % 83 % 5 % 1027,9 hPa 0,0 l/m 7,1 km/h (2 Bft) W 270 0 min 0,0 UV-I 6,1 C 8,5 C 8,4 km/h (2 Bft)
30.11.2011 12:40 9,2 C 10,3 C 9,0 C 9,5 C 9,1 C 0,3 C 81 % 84 % 8 % 1028,2 hPa 0,0 l/m 7,7 km/h (2 Bft) SW 225 0 min 0,0 UV-I 6,1 C 8,0 C 8,2 km/h (2 Bft)
30.11.2011 12:45 9,3 C 10,3 C 9,1 C 9,6 C 9,6 C 0,3 C 81 % 84 % 8 % 1028,2 hPa 0,0 l/m 5,5 km/h (1 Bft) W-SW 247 0 min 0,0 UV-I 6,2 C 9,2 C 6,0 km/h (2 Bft)
30.11.2011 12:50 9,2 C 10,3 C 9,1 C 10,2 C 10,2 C 1,0 C 81 % 84 % 26 % 1028,2 hPa 0,0 l/m 4,2 km/h (1 Bft) W-SW 247 0 min 0,0 UV-I 6,1 C 10,2 C 3,1 km/h (1 Bft)
30.11.2011 12:55 9,4 C 10,3 C 9,3 C 10,5 C 10,5 C 1,1 C 81 % 83 % 29 % 1028,2 hPa 0,0 l/m 4,0 km/h (1 Bft) SW 225 0 min 0,0 UV-I 6,3 C 10,5 C 3,7 km/h (1 Bft)
30.11.2011 13:01 9,5 C 10,3 C 9,3 C 10,7 C 10,7 C 1,2 C 80 % 83 % 32 % 1028,3 hPa 0,0 l/m 3,9 km/h (1 Bft) W-SW 247 0 min 0,0 UV-I 6,2 C 10,7 C 4,5 km/h (1 Bft)
30.11.2011 13:13 9,4 C 10,4 C 9,5 C 10,6 C 10,6 C 1,2 C 80 % 82 % 32 % 1028,3 hPa 0,0 l/m 3,4 km/h (1 Bft) N 0 0 min 0,0 UV-I 6,1 C 10,6 C 4,0 km/h (1 Bft)
30.11.2011 13:20 9,5 C 10,3 C 9,2 C 9,9 C 9,9 C 0,4 C 75 % 79 % 11 % 1028,3 hPa 0,0 l/m 6,0 km/h (2 Bft) W-SW 247 0 min 0,0 UV-I 5,3 C 9,4 C 6,9 km/h (2 Bft)
30.11.2011 13:25 9,5 C 10,4 C 9,1 C 9,9 C 9,9 C 0,4 C 77 % 80 % 11 % 1028,3 hPa 0,0 l/m 5,3 km/h (1 Bft) SW 225 0 min 0,0 UV-I 5,7 C 9,6 C 5,6 km/h (1 Bft)
30.11.2011 13:30 9,3 C 10,3 C 9,1 C 9,4 C 9,4 C 0,1 C 74 % 80 % 3 % 1028,3 hPa 0,0 l/m 6,0 km/h (2 Bft) SW 225 0 min 0,0 UV-I 4,9 C 8,8 C 12,1 km/h (2 Bft)
30.11.2011 13:35 9,2 C 10,3 C 8,9 C 9,2 C 9,2 C 0,0 C 73 % 77 % 0 % 1028,3 hPa 0,0 l/m 6,9 km/h (2 Bft) W-SW 247 0 min 0,0 UV-I 4,6 C 8,3 C 7,4 km/h (2 Bft)
30.11.2011 13:40 9,2 C 10,3 C 8,8 C 9,2 C 9,1 C 0,0 C 72 % 76 % 0 % 1028,2 hPa 0,0 l/m 7,1 km/h (2 Bft) W 270 0 min 0,0 UV-I 4,4 C 8,2 C 12,9 km/h (3 Bft)
30.11.2011 13:45 9,3 C 10,3 C 9,1 C 9,8 C 9,8 C 0,5 C 73 % 76 % 13 % 1028,2 hPa 0,0 l/m 6,3 km/h (2 Bft) W-SW 247 0 min 0,0 UV-I 4,7 C 9,2 C 4,5 km/h (1 Bft)
30.11.2011 13:50 9,3 C 10,3 C 9,1 C 9,9 C 9,9 C 0,6 C 71 % 76 % 16 % 1028,2 hPa 0,0 l/m 6,0 km/h (2 Bft) W-SW 247 0 min 0,0 UV-I 4,3 C 9,4 C 8,4 km/h (2 Bft)
30.11.2011 13:55 9,3 C 10,3 C 8,8 C 9,6 C 9,6 C 0,3 C 71 % 75 % 8 % 1028,2 hPa 0,0 l/m 5,6 km/h (1 Bft) W-SW 247 0 min 0,0 UV-I 4,3 C 9,1 C 5,8 km/h (2 Bft)
30.11.2011 14:00 9,2 C 10,3 C 8,9 C 9,5 C 9,5 C 0,3 C 71 % 75 % 8 % 1028,4 hPa 0,0 l/m 5,0 km/h (1 Bft) W 270 0 min 0,0 UV-I 4,2 C 9,2 C 6,9 km/h (2 Bft)
30.11.2011 14:04 9,3 C 10,3 C 8,8 C 10,1 C 10,1 C 0,8 C 71 % 75 % 21 % 1028,4 hPa 0,0 l/m 3,9 km/h (1 Bft) W 270 0 min 0,0 UV-I 4,3 C 10,1 C 4,7 km/h (1 Bft)
30.11.2011 14:09 9,5 C 10,4 C 9,1 C 10,7 C 10,7 C 1,2 C 70 % 74 % 32 % 1028,4 hPa 0,0 l/m 3,7 km/h (1 Bft) W-SW 247 0 min 0,0 UV-I 4,3 C 10,7 C 4,5 km/h (1 Bft)
30.11.2011 14:14 9,5 C 10,4 C 9,1 C 11,1 C 11,1 C 1,6 C 70 % 74 % 42 % 1028,4 hPa 0,0 l/m 5,0 km/h (1 Bft) W-SW 247 0 min 0,0 UV-I 4,3 C 11,1 C 10,5 km/h (2 Bft)
30.11.2011 14:18 9,5 C 10,4 C 9,1 C 11,1 C 11,1 C 1,6 C 70 % 74 % 42 % 1028,4 hPa 0,0 l/m 5,0 km/h (1 Bft) W-SW 247 0 min 0,0 UV-I 4,3 C 11,1 C 10,5 km/h (2 Bft)
30.11.2011 14:25 9,5 C 10,4 C 8,9 C 10,6 C 10,6 C 1,1 C 70 % 74 % 29 % 1028,8 hPa 0,0 l/m 6,1 km/h (2 Bft) W-SW 247 0 min 0,0 UV-I 4,3 C 10,6 C 6,4 km/h (2 Bft)
30.11.2011 14:30 9,3 C 10,4 C 8,9 C 10,4 C 10,4 C 1,1 C 70 % 74 % 29 % 1028,8 hPa 0,0 l/m 5,6 km/h (1 Bft) SW 225 0 min 0,0 UV-I 4,1 C 10,4 C 5,3 km/h (1 Bft)
30.11.2011 14:35 9,3 C 10,4 C 8,9 C 10,3 C 10,3 C 1,0 C 70 % 74 % 26 % 1028,8 hPa 0,0 l/m 5,3 km/h (1 Bft) W-SW 247 0 min 0,0 UV-I 4,1 C 10,3 C 5,0 km/h (1 Bft)
30.11.2011 14:40 9,2 C 10,4 C 8,9 C 9,9 C 9,9 C 0,7 C 71 % 75 % 18 % 1028,4 hPa 0,0 l/m 5,5 km/h (1 Bft) SW 225 0 min 0,0 UV-I 4,2 C 9,5 C 4,5 km/h (1 Bft)
30.11.2011 14:45 9,2 C 10,4 C 8,9 C 9,7 C 9,7 C 0,5 C 71 % 75 % 13 % 1028,4 hPa 0,0 l/m 4,3 km/h (1 Bft) W-SW 247 0 min 0,0 UV-I 4,2 C 9,7 C 3,4 km/h (1 Bft)
30.11.2011 14:50 9,1 C 10,4 C 8,8 C 9,7 C 9,7 C 0,6 C 72 % 75 % 16 % 1028,4 hPa 0,0 l/m 3,2 km/h (1 Bft) W-SW 247 0 min 0,0 UV-I 4,3 C 9,7 C 2,6 km/h (1 Bft)
30.11.2011 14:55 9,1 C 10,4 C 8,7 C 9,3 C 9,3 C 0,2 C 72 % 76 % 5 % 1028,4 hPa 0,0 l/m 3,2 km/h (1 Bft) W-SW 247 0 min 0,0 UV-I 4,3 C 9,3 C 4,3 km/h (1 Bft)
30.11.2011 15:00 9,0 C 10,4 C 8,7 C 9,2 C 9,2 C 0,2 C 72 % 76 % 5 % 1028,4 hPa 0,0 l/m 3,4 km/h (1 Bft) W-SW 247 0 min 0,0 UV-I 4,2 C 9,2 C 3,2 km/h (1 Bft)
30.11.2011 15:04 8,8 C 10,5 C 8,5 C 8,9 C 8,9 C 0,1 C 73 % 76 % 3 % 1028,4 hPa 0,0 l/m 3,5 km/h (1 Bft) SW 225 0 min 0,0 UV-I 4,2 C 8,9 C 4,5 km/h (1 Bft)
30.11.2011 15:09 8,9 C 10,5 C 8,5 C 8,8 C 8,7 C 0,0 C 73 % 77 % 0 % 1028,4 hPa 0,0 l/m 3,7 km/h (1 Bft) SW 225 0 min 0,0 UV-I 4,3 C 8,7 C 4,3 km/h (1 Bft)
30.11.2011 15:14 8,7 C 10,5 C 8,3 C 8,6 C 8,4 C 0,0 C 74 % 77 % 0 % 1028,4 hPa 0,0 l/m 3,7 km/h (1 Bft) W-SW 247 0 min 0,0 UV-I 4,3 C 8,4 C 4,5 km/h (1 Bft)
30.11.2011 15:17 8,7 C 10,5 C 8,3 C 8,6 C 8,4 C 0,0 C 74 % 77 % 0 % 1028,4 hPa 0,0 l/m 3,7 km/h (1 Bft) W-SW 247 0 min 0,0 UV-I 4,3 C 8,4 C 4,5 km/h (1 Bft)
30.11.2011 15:20 8,5 C 10,5 C 8,3 C 8,4 C 8,2 C 0,0 C 74 % 77 % 0 % 1029,2 hPa 0,0 l/m 3,9 km/h (1 Bft) W-SW 247 0 min 0,0 UV-I 4,1 C 8,2 C 4,0 km/h (1 Bft)
30.11.2011 15:25 8,4 C 10,6 C 8,1 C 8,2 C 7,8 C 0,0 C 74 % 78 % 0 % 1029,2 hPa 0,0 l/m 4,0 km/h (1 Bft) W-SW 247 0 min 0,0 UV-I 4,0 C 7,8 C 4,8 km/h (1 Bft)
30.11.2011 15:30 8,3 C 10,6 C 8,0 C 8,1 C 7,8 C 0,0 C 75 % 78 % 0 % 1029,2 hPa 0,0 l/m 3,7 km/h (1 Bft) W 270 0 min 0,0 UV-I 4,1 C 7,8 C 3,7 km/h (1 Bft)
30.11.2011 15:35 8,1 C 10,6 C 7,9 C 7,9 C 7,6 C 0,0 C 75 % 78 % 0 % 1029,2 hPa 0,0 l/m 3,1 km/h (1 Bft) W-SW 247 0 min 0,0 UV-I 3,9 C 7,6 C 3,9 km/h (1 Bft)
30.11.2011 15:40 8,0 C 10,6 C 7,8 C 7,8 C 7,4 C 0,0 C 76 % 78 % 0 % 1029,2 hPa 0,0 l/m 2,7 km/h (1 Bft) SW 225 0 min 0,0 UV-I 4,0 C 7,4 C 3,4 km/h (1 Bft)
30.11.2011 15:45 7,9 C 10,6 C 7,6 C 7,7 C 7,2 C 0,0 C 76 % 79 % 0 % 1029,2 hPa 0,0 l/m 2,1 km/h (1 Bft) W-SW 247 0 min 0,0 UV-I 3,9 C 7,2 C 0,0 km/h (0 Bft)
30.11.2011 15:50 7,7 C 10,6 C 7,5 C 7,5 C 7,0 C 0,0 C 76 % 79 % 0 % 1029,2 hPa 0,0 l/m 1,4 km/h (1 Bft) S-SW 202 0 min 0,0 UV-I 3,7 C 7,0 C 1,8 km/h (1 Bft)
30.11.2011 15:55 7,5 C 10,7 C 7,1 C 7,2 C 6,7 C 0,0 C 76 % 79 % 0 % 1029,2 hPa 0,0 l/m 0,5 km/h (0 Bft) S-SW 202 0 min 0,0 UV-I 3,5 C 6,7 C 0,0 km/h (0 Bft)
30.11.2011 16:00 7,4 C 10,7 C 7,1 C 7,1 C 6,4 C 0,0 C 77 % 79 % 0 % 1029,3 hPa 0,0 l/m 0,2 km/h (0 Bft) S-SW 202 0 min 0,0 UV-I 3,6 C 6,4 C 0,0 km/h (0 Bft)
30.11.2011 16:10 6,9 C 10,7 C 6,4 C 6,6 C 5,9 C 0,0 C 77 % 80 % 0 % 1029,3 hPa 0,0 l/m 0,3 km/h (0 Bft) N 0 0 min 0,0 UV-I 3,2 C 5,9 C 0,0 km/h (0 Bft)
30.11.2011 16:20 6,5 C 10,7 C 6,3 C 6,1 C 5,3 C 0,0 C 78 % 81 % 0 % 1029,1 hPa 0,0 l/m 0,0 km/h (0 Bft) S-SO 157 0 min 0,0 UV-I 2,9 C 5,3 C 0,0 km/h (0 Bft)
30.11.2011 16:25 6,3 C 10,8 C 5,9 C 5,9 C 5,0 C 0,0 C 78 % 81 % 0 % 1029,1 hPa 0,0 l/m 0,0 km/h (0 Bft) S-SW 202 0 min 0,0 UV-I 2,8 C 5,0 C 0,0 km/h (0 Bft)
30.11.2011 16:30 6,0 C 10,9 C 5,6 C 5,5 C 4,6 C 0,0 C 79 % 82 % 0 % 1029,1 hPa 0,0 l/m 0,0 km/h (0 Bft) SO 135 0 min 0,0 UV-I 2,6 C 4,6 C 0,0 km/h (0 Bft)
30.11.2011 16:35 5,7 C 10,8 C 5,3 C 5,3 C 4,4 C 0,0 C 80 % 82 % 0 % 1029,1 hPa 0,0 l/m 0,0 km/h (0 Bft) SO 135 0 min 0,0 UV-I 2,5 C 4,4 C 0,0 km/h (0 Bft)
30.11.2011 16:40 5,6 C 10,8 C 5,2 C 5,1 C 4,1 C 0,0 C 80 % 82 % 0 % 1029,8 hPa 0,0 l/m 0,0 km/h (0 Bft) SO 135 0 min 0,0 UV-I 2,4 C 4,1 C 0,0 km/h (0 Bft)
30.11.2011 16:45 5,3 C 10,9 C 4,9 C 4,8 C 3,7 C 0,0 C 81 % 82 % 0 % 1029,8 hPa 0,0 l/m 0,0 km/h (0 Bft) SW 225 0 min 0,0 UV-I 2,3 C 3,7 C 0,0 km/h (0 Bft)
30.11.2011 16:50 5,2 C 10,9 C 4,7 C 4,6 C 3,4 C 0,0 C 81 % 83 % 0 % 1029,8 hPa 0,0 l/m 0,0 km/h (0 Bft) SW 225 0 min 0,0 UV-I 2,2 C 3,4 C 0,0 km/h (0 Bft)
30.11.2011 16:55 4,9 C 10,9 C 4,7 C 4,4 C 3,4 C 0,0 C 82 % 84 % 0 % 1029,8 hPa 0,0 l/m 0,0 km/h (0 Bft) SW 225 0 min 0,0 UV-I 2,1 C 3,4 C 0,0 km/h (0 Bft)
30.11.2011 17:00 4,9 C 11,0 C 4,7 C 4,3 C 3,2 C 0,0 C 82 % 85 % 0 % 1029,8 hPa 0,0 l/m 0,0 km/h (0 Bft) S 180 0 min 0,0 UV-I 2,1 C 3,2 C 0,0 km/h (0 Bft)
30.11.2011 17:10 4,4 C 11,1 C 4,1 C 3,9 C 2,9 C 0,0 C 83 % 84 % 0 % 1029,8 hPa 0,0 l/m 0,0 km/h (0 Bft) N 0 0 min 0,0 UV-I 1,8 C 2,9 C 0,0 km/h (0 Bft)
30.11.2011 17:20 4,0 C 11,1 C 3,8 C 3,5 C 2,5 C 0,0 C 84 % 85 % 0 % 1029,6 hPa 0,0 l/m 0,0 km/h (0 Bft) W-SW 247 0 min 0,0 UV-I 1,5 C 2,5 C 0,0 km/h (0 Bft)
30.11.2011 17:25 3,9 C 11,1 C 3,7 C 3,4 C 2,5 C 0,0 C 84 % 85 % 0 % 1029,6 hPa 0,0 l/m 0,0 km/h (0 Bft) W-SW 247 0 min 0,0 UV-I 1,4 C 2,5 C 0,0 km/h (0 Bft)
30.11.2011 17:30 3,9 C 11,1 C 3,7 C 3,4 C 2,4 C 0,0 C 85 % 86 % 0 % 1029,6 hPa 0,0 l/m 0,0 km/h (0 Bft) SW 225 0 min 0,0 UV-I 1,6 C 2,4 C 0,0 km/h (0 Bft)
30.11.2011 17:35 3,7 C 11,1 C 3,4 C 3,3 C 2,5 C 0,0 C 85 % 86 % 0 % 1029,6 hPa 0,0 l/m 0,0 km/h (0 Bft) SW 225 0 min 0,0 UV-I 1,4 C 2,5 C 0,0 km/h (0 Bft)
30.11.2011 17:40 3,6 C 11,1 C 3,2 C 3,3 C 2,6 C 0,0 C 85 % 86 % 0 % 1029,3 hPa 0,0 l/m 0,0 km/h (0 Bft) SO 135 0 min 0,0 UV-I 1,3 C 2,6 C 0,0 km/h (0 Bft)
30.11.2011 17:45 3,5 C 11,1 C 3,1 C 3,1 C 2,4 C 0,0 C 85 % 86 % 0 % 1029,3 hPa 0,0 l/m 0,0 km/h (0 Bft) SO 135 0 min 0,0 UV-I 1,2 C 2,4 C 0,0 km/h (0 Bft)
30.11.2011 17:50 3,5 C 11,1 C 3,1 C 3,1 C 2,3 C 0,0 C 85 % 87 % 0 % 1029,3 hPa 0,0 l/m 0,0 km/h (0 Bft) SO 135 0 min 0,0 UV-I 1,2 C 2,3 C 0,0 km/h (0 Bft)
30.11.2011 17:55 3,2 C 11,1 C 3,1 C 2,8 C 2,0 C 0,0 C 86 % 87 % 0 % 1029,3 hPa 0,0 l/m 0,0 km/h (0 Bft) S-SW 202 0 min 0,0 UV-I 1,1 C 2,0 C 0,0 km/h (0 Bft)
30.11.2011 18:00 3,3 C 11,1 C 3,1 C 2,8 C 1,9 C 0,0 C 86 % 87 % 0 % 1029,3 hPa 0,0 l/m 0,0 km/h (0 Bft) S-SW 202 0 min 0,0 UV-I 1,2 C 1,9 C 0,0 km/h (0 Bft)
30.11.2011 18:10 2,9 C 11,1 C 2,8 C 2,5 C 1,6 C 0,0 C 86 % 87 % 0 % 1029,3 hPa 0,0 l/m 0,0 km/h (0 Bft) N 0 0 min 0,0 UV-I 0,8 C 1,6 C 0,0 km/h (0 Bft)
30.11.2011 18:20 2,5 C 11,1 C 2,3 C 2,1 C 1,2 C 0,0 C 86 % 87 % 0 % 1029,3 hPa 0,0 l/m 0,0 km/h (0 Bft) SO 135 0 min 0,0 UV-I 0,4 C 1,2 C 0,0 km/h (0 Bft)
30.11.2011 18:25 2,3 C 11,1 C 2,3 C 1,9 C 1,0 C 0,0 C 86 % 87 % 0 % 1029,3 hPa 0,0 l/m 0,0 km/h (0 Bft) SO 135 0 min 0,0 UV-I 0,2 C 1,0 C 0,0 km/h (0 Bft)
30.11.2011 18:30 2,3 C 11,0 C 2,1 C 1,8 C 0,9 C 0,0 C 86 % 87 % 0 % 1029,3 hPa 0,0 l/m 0,0 km/h (0 Bft) SO 135 0 min 0,0 UV-I 0,2 C 0,9 C 0,0 km/h (0 Bft)
30.11.2011 18:35 2,1 C 11,0 C 2,2 C 1,6 C 0,7 C 0,0 C 87 % 88 % 0 % 1029,3 hPa 0,0 l/m 0,0 km/h (0 Bft) SO 135 0 min 0,0 UV-I 0,2 C 0,7 C 0,0 km/h (0 Bft)
30.11.2011 18:40 2,0 C 11,0 C 2,1 C 1,5 C 0,6 C 0,0 C 87 % 88 % 0 % 1030,3 hPa 0,0 l/m 0,0 km/h (0 Bft) SO 135 0 min 0,0 UV-I 0,1 C 0,6 C 0,0 km/h (0 Bft)
30.11.2011 18:45 1,9 C 11,0 C 1,9 C 1,5 C 0,6 C 0,0 C 87 % 88 % 0 % 1030,3 hPa 0,0 l/m 0,0 km/h (0 Bft) SO 135 0 min 0,0 UV-I -0,0 C 0,6 C 0,0 km/h (0 Bft)
30.11.2011 18:50 1,9 C 11,0 C 1,7 C 1,5 C 0,7 C 0,0 C 87 % 88 % 0 % 1030,3 hPa 0,0 l/m 0,0 km/h (0 Bft) SO 135 0 min 0,0 UV-I -0,0 C 0,7 C 0,0 km/h (0 Bft)
30.11.2011 18:55 1,6 C 11,0 C 1,7 C 1,3 C 0,6 C 0,0 C 87 % 88 % 0 % 1030,3 hPa 0,0 l/m 0,0 km/h (0 Bft) S-SO 157 0 min 0,0 UV-I -0,3 C 0,6 C 0,0 km/h (0 Bft)
30.11.2011 19:00 1,6 C 11,0 C 1,7 C 1,2 C 0,5 C 0,0 C 88 % 88 % 0 % 1029,9 hPa 0,0 l/m 0,0 km/h (0 Bft) S-SW 202 0 min 0,0 UV-I -0,2 C 0,5 C 0,0 km/h (0 Bft)
30.11.2011 19:10 1,6 C 11,0 C 1,5 C 1,3 C 0,8 C 0,0 C 88 % 88 % 0 % 1029,9 hPa 0,0 l/m 0,0 km/h (0 Bft) N 0 0 min 0,0 UV-I -0,2 C 0,8 C 0,0 km/h (0 Bft)
30.11.2011 19:20 1,6 C 11,0 C 1,3 C 1,4 C 1,0 C 0,0 C 88 % 89 % 0 % 1030,4 hPa 0,0 l/m 0,0 km/h (0 Bft) SO 135 0 min 0,0 UV-I -0,2 C 1,0 C 0,0 km/h (0 Bft)
30.11.2011 19:25 1,4 C 11,0 C 1,2 C 1,1 C 0,6 C 0,0 C 88 % 89 % 0 % 1030,4 hPa 0,0 l/m 0,0 km/h (0 Bft) W-SW 247 0 min 0,0 UV-I -0,4 C 0,6 C 0,0 km/h (0 Bft)
30.11.2011 19:30 1,2 C 10,9 C 1,2 C 0,9 C 0,3 C 0,0 C 88 % 89 % 0 % 1030,4 hPa 0,0 l/m 0,0 km/h (0 Bft) W-SW 247 0 min 0,0 UV-I -0,6 C 0,3 C 0,0 km/h (0 Bft)
30.11.2011 19:35 1,1 C 10,9 C 1,2 C 0,8 C 0,3 C 0,0 C 88 % 89 % 0 % 1030,4 hPa 0,0 l/m 0,0 km/h (0 Bft) SW 225 0 min 0,0 UV-I -0,7 C 0,3 C 0,0 km/h (0 Bft)
30.11.2011 19:40 1,2 C 10,9 C 1,1 C 1,0 C 0,5 C 0,0 C 89 % 89 % 0 % 1030,2 hPa 0,0 l/m 0,0 km/h (0 Bft) SW 225 0 min 0,0 UV-I -0,4 C 0,5 C 0,0 km/h (0 Bft)
30.11.2011 19:45 1,2 C 10,9 C 1,1 C 1,1 C 0,8 C 0,0 C 89 % 90 % 0 % 1030,2 hPa 0,0 l/m 0,0 km/h (0 Bft) SO 135 0 min 0,0 UV-I -0,4 C 0,8 C 0,0 km/h (0 Bft)
30.11.2011 19:50 1,3 C 10,9 C 1,3 C 1,2 C 1,0 C 0,0 C 89 % 90 % 0 % 1030,2 hPa 0,0 l/m 0,0 km/h (0 Bft) SO 135 0 min 0,0 UV-I -0,3 C 1,0 C 0,0 km/h (0 Bft)
30.11.2011 19:55 1,3 C 10,9 C 1,2 C 1,2 C 0,9 C 0,0 C 90 % 90 % 0 % 1030,2 hPa 0,0 l/m 0,0 km/h (0 Bft) SO 135 0 min 0,0 UV-I -0,2 C 0,9 C 0,0 km/h (0 Bft)
30.11.2011 20:00 1,3 C 10,9 C 1,2 C 1,2 C 1,1 C 0,0 C 90 % 90 % 0 % 1030,2 hPa 0,0 l/m 0,0 km/h (0 Bft) SO 135 0 min 0,0 UV-I -0,2 C 1,1 C 0,0 km/h (0 Bft)
30.11.2011 20:10 1,4 C 10,9 C 1,2 C 1,3 C 1,1 C 0,0 C 90 % 90 % 0 % 1030,2 hPa 0,0 l/m 0,0 km/h (0 Bft) N 0 0 min 0,0 UV-I -0,1 C 1,1 C 0,0 km/h (0 Bft)
30.11.2011 20:20 1,2 C 10,9 C 1,1 C 1,0 C 0,7 C 0,0 C 90 % 90 % 0 % 1030,4 hPa 0,0 l/m 0,0 km/h (0 Bft) SO 135 0 min 0,0 UV-I -0,3 C 0,7 C 0,0 km/h (0 Bft)
30.11.2011 20:25 1,0 C 10,8 C 0,9 C 0,7 C 0,2 C 0,0 C 89 % 90 % 0 % 1030,4 hPa 0,0 l/m 0,0 km/h (0 Bft) SW 225 0 min 0,0 UV-I -0,6 C 0,2 C 0,0 km/h (0 Bft)
30.11.2011 20:30 0,8 C 10,8 C 0,7 C 0,4 C -0,3 C 0,0 C 89 % 89 % 0 % 1030,4 hPa 0,0 l/m 0,0 km/h (0 Bft) SW 225 0 min 0,0 UV-I -0,8 C -0,3 C 0,0 km/h (0 Bft)
30.11.2011 20:35 0,5 C 10,9 C 0,7 C 0,1 C -0,8 C 0,0 C 89 % 89 % 0 % 1030,4 hPa 0,0 l/m 0,0 km/h (0 Bft) S-SO 157 0 min 0,0 UV-I -1,1 C -0,8 C 0,0 km/h (0 Bft)
30.11.2011 20:40 0,4 C 10,9 C 0,5 C 0,0 C -0,8 C 0,0 C 89 % 89 % 0 % 1030,6 hPa 0,0 l/m 0,0 km/h (0 Bft) SO 135 0 min 0,0 UV-I -1,2 C -0,8 C 0,0 km/h (0 Bft)
30.11.2011 20:45 0,3 C 10,9 C 0,4 C 0,0 C -0,6 C 0,0 C 89 % 89 % 0 % 1030,6 hPa 0,0 l/m 0,0 km/h (0 Bft) SO 135 0 min 0,0 UV-I -1,3 C -0,6 C 0,0 km/h (0 Bft)
30.11.2011 20:50 0,2 C 10,9 C 0,4 C 0,0 C -0,4 C 0,0 C 89 % 90 % 0 % 1030,6 hPa 0,0 l/m 0,0 km/h (0 Bft) SO 135 0 min 0,0 UV-I -1,4 C -0,4 C 0,0 km/h (0 Bft)
30.11.2011 20:55 0,2 C 10,9 C 0,2 C 0,1 C 0,0 C 0,0 C 89 % 90 % 0 % 1030,6 hPa 0,0 l/m 0,0 km/h (0 Bft) SO 135 0 min 0,0 UV-I -1,4 C 0,0 C 0,0 km/h (0 Bft)
30.11.2011 21:00 0,5 C 10,9 C 0,3 C 0,4 C 0,2 C 0,0 C 90 % 90 % 0 % 1030,1 hPa 0,0 l/m 0,0 km/h (0 Bft) SO 135 0 min 0,0 UV-I -0,9 C 0,2 C 0,0 km/h (0 Bft)
30.11.2011 21:12 0,5 C 10,9 C 0,3 C 0,4 C 0,1 C 0,0 C 90 % 90 % 0 % 1030,1 hPa 0,0 l/m 0,0 km/h (0 Bft) N 0 0 min 0,0 UV-I -0,9 C 0,1 C 0,0 km/h (0 Bft)
30.11.2011 21:20 0,5 C 10,8 C 0,4 C 0,4 C 0,1 C 0,0 C 90 % 90 % 0 % 1030,1 hPa 0,0 l/m 0,0 km/h (0 Bft) SO 135 0 min 0,0 UV-I -0,9 C 0,1 C 0,0 km/h (0 Bft)
30.11.2011 21:25 0,7 C 10,8 C 0,4 C 0,5 C 0,2 C 0,0 C 90 % 91 % 0 % 1030,1 hPa 0,0 l/m 0,0 km/h (0 Bft) SO 135 0 min 0,0 UV-I -0,7 C 0,2 C 0,0 km/h (0 Bft)
30.11.2011 21:30 0,6 C 10,8 C 0,4 C 0,5 C 0,2 C 0,0 C 90 % 91 % 0 % 1030,1 hPa 0,0 l/m 0,0 km/h (0 Bft) SO 135 0 min 0,0 UV-I -0,8 C 0,2 C 0,0 km/h (0 Bft)
30.11.2011 21:35 0,6 C 10,8 C 0,3 C 0,4 C 0,1 C 0,0 C 90 % 91 % 0 % 1030,1 hPa 0,0 l/m 0,0 km/h (0 Bft) SO 135 0 min 0,0 UV-I -0,8 C 0,1 C 0,0 km/h (0 Bft)
30.11.2011 21:40 0,5 C 10,8 C 0,3 C 0,3 C 0,0 C 0,0 C 90 % 91 % 0 % 1030,5 hPa 0,0 l/m 0,0 km/h (0 Bft) S-SW 202 0 min 0,0 UV-I -0,9 C 0,0 C 0,0 km/h (0 Bft)
30.11.2011 21:45 0,4 C 10,8 C 0,3 C 0,2 C -0,3 C 0,0 C 90 % 90 % 0 % 1030,5 hPa 0,0 l/m 0,0 km/h (0 Bft) SW 225 0 min 0,0 UV-I -1,0 C -0,3 C 0,0 km/h (0 Bft)
30.11.2011 21:50 0,3 C 10,8 C 0,1 C 0,0 C -0,5 C 0,0 C 90 % 90 % 0 % 1030,5 hPa 0,0 l/m 0,0 km/h (0 Bft) S 180 0 min 0,0 UV-I -1,1 C -0,5 C 0,0 km/h (0 Bft)
30.11.2011 21:55 -0,1 C 10,7 C -0,1 C -0,3 C -0,8 C 0,0 C 90 % 90 % 0 % 1030,5 hPa 0,0 l/m 0,0 km/h (0 Bft) SW 225 0 min 0,0 UV-I -1,5 C -0,8 C 0,0 km/h (0 Bft)
30.11.2011 22:00 -0,1 C 10,7 C -0,1 C -0,5 C -1,2 C 0,0 C 89 % 90 % 0 % 1030,7 hPa 0,0 l/m 0,0 km/h (0 Bft) SW 225 0 min 0,0 UV-I -1,7 C -1,2 C 0,0 km/h (0 Bft)
30.11.2011 22:10 -0,6 C 10,7 C -0,1 C -0,9 C -1,6 C 0,0 C 89 % 90 % 0 % 1030,7 hPa 0,0 l/m 0,0 km/h (0 Bft) N 0 0 min 0,0 UV-I -2,2 C -1,6 C 0,0 km/h (0 Bft)
30.11.2011 22:20 -0,8 C 10,7 C -0,1 C -1,1 C -1,8 C 0,0 C 89 % 90 % 0 % 1030,6 hPa 0,0 l/m 0,0 km/h (0 Bft) SW 225 0 min 0,0 UV-I -2,4 C -1,8 C 0,0 km/h (0 Bft)
30.11.2011 22:25 -0,7 C 10,7 C -0,3 C -1,0 C -1,7 C 0,0 C 90 % 90 % 0 % 1030,6 hPa 0,0 l/m 0,0 km/h (0 Bft) S-SO 157 0 min 0,0 UV-I -2,1 C -1,7 C 0,0 km/h (0 Bft)
30.11.2011 22:30 -0,8 C 10,7 C -0,3 C -1,0 C -1,5 C 0,0 C 90 % 91 % 0 % 1030,6 hPa 0,0 l/m 0,0 km/h (0 Bft) SO 135 0 min 0,0 UV-I -2,2 C -1,5 C 0,0 km/h (0 Bft)
30.11.2011 22:35 -0,5 C 10,7 C -0,3 C -0,7 C -1,0 C 0,0 C 90 % 90 % 0 % 1030,6 hPa 0,0 l/m 0,0 km/h (0 Bft) SO 135 0 min 0,0 UV-I -1,9 C -1,0 C 0,0 km/h (0 Bft)
30.11.2011 22:40 -0,5 C 10,7 C -0,4 C -0,7 C -1,0 C 0,0 C 90 % 91 % 0 % 1030,6 hPa 0,0 l/m 0,0 km/h (0 Bft) SO 135 0 min 0,0 UV-I -1,9 C -1,0 C 0,0 km/h (0 Bft)
30.11.2011 22:45 -0,5 C 10,6 C -0,3 C -0,7 C -1,0 C 0,0 C 90 % 91 % 0 % 1030,6 hPa 0,0 l/m 0,0 km/h (0 Bft) SO 135 0 min 0,0 UV-I -1,9 C -1,0 C 0,0 km/h (0 Bft)
30.11.2011 22:50 -0,5 C 10,6 C -0,4 C -0,6 C -0,9 C 0,0 C 90 % 91 % 0 % 1030,6 hPa 0,0 l/m 0,0 km/h (0 Bft) SO 135 0 min 0,0 UV-I -1,9 C -0,9 C 0,0 km/h (0 Bft)
30.11.2011 22:55 -0,5 C 10,6 C -0,5 C -0,7 C -1,1 C 0,0 C 90 % 90 % 0 % 1030,6 hPa 0,0 l/m 0,0 km/h (0 Bft) SW 225 0 min 0,0 UV-I -1,9 C -1,1 C 0,0 km/h (0 Bft)
30.11.2011 23:00 -0,7 C 10,6 C -0,5 C -0,9 C -1,4 C 0,0 C 90 % 90 % 0 % 1030,2 hPa 0,0 l/m 0,0 km/h (0 Bft) SW 225 0 min 0,0 UV-I -2,1 C -1,4 C 0,0 km/h (0 Bft)
30.11.2011 23:10 -0,9 C 10,6 C -0,5 C -1,3 C -2,2 C 0,0 C 90 % 90 % 0 % 1030,2 hPa 0,0 l/m 0,0 km/h (0 Bft) N 0 0 min 0,0 UV-I -2,3 C -2,2 C 0,0 km/h (0 Bft)
30.11.2011 23:20 -1,3 C 10,5 C -0,8 C -1,6 C -2,2 C 0,0 C 90 % 90 % 0 % 1029,6 hPa 0,0 l/m 0,0 km/h (0 Bft) SW 225 0 min 0,0 UV-I -2,7 C -2,2 C 0,0 km/h (0 Bft)
30.11.2011 23:25 -1,3 C 10,5 C -0,7 C -1,6 C -2,3 C 0,0 C 90 % 90 % 0 % 1029,6 hPa 0,0 l/m 0,0 km/h (0 Bft) SW 225 0 min 0,0 UV-I -2,7 C -2,3 C 0,0 km/h (0 Bft)
30.11.2011 23:30 -1,4 C 10,5 C -0,7 C -1,8 C -2,6 C 0,0 C 90 % 90 % 0 % 1029,6 hPa 0,0 l/m 0,0 km/h (0 Bft) SW 225 0 min 0,0 UV-I -2,8 C -2,6 C 0,0 km/h (0 Bft)
30.11.2011 23:35 -1,6 C 10,5 C -0,9 C -2,0 C -2,7 C 0,0 C 90 % 90 % 0 % 1029,6 hPa 0,0 l/m 0,0 km/h (0 Bft) SW 225 0 min 0,0 UV-I -3,0 C -2,7 C 0,0 km/h (0 Bft)
30.11.2011 23:40 -1,6 C 10,5 C -0,9 C -2,0 C -2,7 C 0,0 C 90 % 90 % 0 % 1029,9 hPa 0,0 l/m 0,0 km/h (0 Bft) SW 225 0 min 0,0 UV-I -3,0 C -2,7 C 0,0 km/h (0 Bft)
30.11.2011 23:45 -1,5 C 10,5 C -0,9 C -1,8 C -2,4 C 0,0 C 90 % 90 % 0 % 1029,9 hPa 0,0 l/m 0,0 km/h (0 Bft) SW 225 0 min 0,0 UV-I -2,9 C -2,4 C 0,0 km/h (0 Bft)
30.11.2011 23:50 -1,5 C 10,5 C -0,9 C -1,9 C -2,6 C 0,0 C 90 % 90 % 0 % 1029,9 hPa 0,0 l/m 0,0 km/h (0 Bft) SW 225 0 min 0,0 UV-I -2,9 C -2,6 C 0,0 km/h (0 Bft)
30.11.2011 23:55 -1,7 C 10,5 C -1,1 C -2,0 C -2,5 C 0,0 C 90 % 90 % 0 % 1029,9 hPa 0,0 l/m 0,0 km/h (0 Bft) SO 135 0 min 0,0 UV-I -3,1 C -2,5 C 0,0 km/h (0 Bft)
30.11.2011 23:59 -1,5 C 10,4 C -1,3 C -1,8 C -2,3 C 0,0 C 91 % 90 % 0 % 1029,9 hPa 0,0 l/m 0,0 km/h (0 Bft) SO 135 0 min 0,0 UV-I -2,8 C -2,3 C 0,0 km/h (0 Bft)
_ Min-Zeit 23:55 00:00 23:59 23:35 23:35 00:00 14:09 14:09 00:00 00:00 - 16:20 - - - 00:00 23:55 23:35 11:25
Minimum _ -1,7 C 9,2 C -1,3 C -2,0 C -2,7 C 0,0 C 70 % 74 % 0 % 1021,3 hPa - 0,0 km/h (0 Bft) - - - 0,0 UV-I -3,1 C -2,7 C 0,0 km/h (0 Bft)
_ Max-Zeit 13:01 17:10 13:13 14:14 14:14 14:14 23:59 21:25 14:14 22:00 00:00 10:10 - - 00:00 00:00 12:20 14:14 02:55
Maximum _ 9,5 C 11,1 C 9,5 C 11,1 C 11,1 C 1,6 C 91 % 91 % 42 % 1030,7 hPa 0,0 l/m 7,7 km/h
N (2 Bft)
- - 0 min 0,0 UV-I 6,4 C 11,1 C 21,6 km/h
W (4 Bft)
Durchschnitt _ 5,8 C 10,2 C 5,5 C 5,7 C 5,2 C 0,1 C 82 % 84 % 4 % 1026,7 hPa #0,0 l/m 3,1 km/h (1 Bft) W-SW - #0 min. 0,0 UV-I 2,8 C 4,9 C 4,1 km/h (1 Bft)
2011 www.wetterstation-wechselburg.de